Regional Weather Roundup
Issued by NWS

Home | Current Version | Previous Version | Graphics & Text | Print | Product List | Glossary Off
Versions: 1 2 3 4 5 6 7 8 9 10 11 12 13 14 15 16 17 18 19 20 21 22 23 24 25 26 27 28 29 30 31 32 33 34 35 36 37 38 39 40 41 42 43 44 45 46 47 48 49 50

000
ASUS43 KDTX 230501
RWRMI
MICHIGAN HOURLY REGIONAL WEATHER ROUNDUP
NATIONAL WEATHER SERVICE DETROIT/PONTIAC MI
100 AM EDT MON OCT 23 2017

NOTE: "FAIR" INDICATES FEW OR NO CLOUDS BELOW 12,000 FEET WITH NO
SIGNIFICANT WEATHER AND/OR OBSTRUCTION TO VISIBILITY.

MIZ047>049-052>055-059>063-066>070-074>076-081>083-230600-
SOUTHEAST LOWER MICHIGAN

CITY           SKY/WX    TMP DP  RH WIND       PRES   REMARKS
ADRIAN         CLOUDY    61  50  67 S5        30.01F
ALMA           CLOUDY    63  60  90 W6        29.97R
ANN ARBOR      CLOUDY    64  48  56 S6        30.00F
BAD AXE        CLOUDY    66  50  55 S12       29.98F
CARO           CLOUDY    69  49  49 S12G17    29.96F
DETROIT CITY   MOCLDY    65  51  60 S7        30.02F
DETROIT        CLOUDY    62  52  69 S5        30.03S
FLINT          CLOUDY    68  49  50 S13       29.98F
GROSSE ILE     CLOUDY    62  56  81 S6        30.01F
HILLSDALE      MOCLDY    63  50  63 S8        29.99F
HOWELL         MOCLDY    66  50  55 S8        29.99F

CITY           SKY/WX    TMP DP  RH WIND       PRES   REMARKS
JACKSON        CLOUDY    67  50  54 S12       29.99F
LAMBERTVILLE   CLOUDY    66  48  52 S5        30.01F
LANSING        CLOUDY    68  52  56 S12G21    29.97F
LAPEER         FAIR      66  49  53 S7        30.00S
MASON          CLOUDY    67  52  58 SE5       29.98S
MONROE         MOCLDY    63  51  64 SE5       30.01F
MT. CLEMENS    CLOUDY    60  56  86 S6        30.01F
PONTIAC        CLOUDY    66  49  54 S8        30.00F
PORT HOPE        N/A     69  51  52 S8        29.96F
PORT HURON     CLOUDY    64  52  63 S6        30.02F
TRI CITIES     MOCLDY    65  58  78 SW7       29.96F
MIDLAND        CLOUDY    66  61  83 SW3       29.95S
TROY           CLOUDY    66  50  56 S7        30.03F
SAGINAW HB     CLOUDY    68  52  56 S12       29.95F
$$
MIZ043>046-050>051-056>058-064>065-071>073-077>080-230600-
SOUTHWEST LOWER MICHIGAN

CITY           SKY/WX    TMP DP  RH WIND       PRES   REMARKS
BATTLE CREEK   CLOUDY    65  62  90 S6        29.97F
BENTON HARBOR  CLOUDY    57  54  89 CALM      29.98F
BIG RAPIDS     RAIN      51  50  95 CALM      29.98S
COLDWATER      CLOUDY    67  50  54 S7        29.98S
FREMONT        RAIN      52  52 100 NW5       29.99R
HOLLAND        LGT RAIN  54  52  93 N3        29.99F
GRAND RAPIDS   CLOUDY    57  56  96 W7        29.97S
IONIA          CLOUDY    62  60  94 CALM      29.96F
KALAMAZOO      CLOUDY    63  59  87 W3        29.97F
LUDINGTON      RAIN      51  50  96 CALM      30.00S
MARSHALL       CLOUDY    67  53  60 S6        29.97F
MOUNT PLEASANT CLOUDY    58  55  88 NW6       29.96F
MUSKEGON       RAIN      54  53  97 NW6       29.99S FOG
SOUTH HAVEN    CLOUDY    56  55  95 CALM      29.98F
$$
MIZ016>042-230600-
NORTHERN LOWER MICHIGAN

CITY           SKY/WX    TMP DP  RH WIND       PRES   REMARKS
ALPENA         LGT RAIN  53  53 100 CALM      29.98S FOG
BEAVER ISLAND  CLOUDY    51  51  99 CALM      29.99S
BELLAIRE       FLURRIES  51  50  94 CALM      29.99F
CADILLAC       RAIN      53  50  89 NW3       29.98R
CHARLEVOIX     LGT RAIN  51  51 100 CALM      30.02S
FRANKFORT      LGT RAIN  52  52 100 CALM      30.00S
GAYLORD        LGT RAIN  50  49  96 NW3       29.98S FOG
GRAYLING       DRIZZLE   51  50  95 CALM      29.98F
HARBOR SPRINGS LGT RAIN  50  48  94 N3        29.99S
HOUGHTON LAKE  LGT RAIN  52  51  97 N3        29.98S FOG
MANISTEE       LGT RAIN  51  50  96 CALM      30.00S
OSCODA         CLOUDY    65  55  68 CALM      29.95S
PELLSTON       LGT RAIN  50  49  96 W5        30.00R
ROGERS CITY    DRIZZLE   52  51  97 CALM      29.99S
TRAVERSE CITY  LGT RAIN  53  51  93 N3        29.97F
$$
MIZ007>008-015-230600-
EASTERN UPPER MICHIGAN

CITY           SKY/WX    TMP DP  RH WIND       PRES   REMARKS
KINROSS        LGT RAIN  50  49  96 W8        29.98S
MACKINAC ISLAN LGT RAIN  51  51 100 W3        29.98S
NEWBERRY       MOCLDY    48  47  97 CALM      29.97F
S. S. MARIE    LGT RAIN  52  50  93 W7        29.97S
MUNISING         N/A     45  45 100 S3        29.96F
$$
MIZ004>006-011>014-085-230600-
CENTRAL UPPER MICHIGAN

CITY           SKY/WX    TMP DP  RH WIND       PRES   REMARKS
MANISTIQUE     PTCLDY    48  42  81 W3        29.97F
ESCANABA       CLOUDY    44  44 100 W3        29.98S FOG
MENOMINEE      MOCLDY    46  45  96 W3        30.00S
SAWYER-GWINN   MOCLDY    42  42  98 SW6       29.96F
$$
MIZ001>003-009>011-084-230600-
WESTERN UPPER MICHIGAN

CITY           SKY/WX    TMP DP  RH WIND       PRES   REMARKS
IRON MOUNTAIN  CLOUDY    42  39  89 CALM      29.96F FOG
HOUGHTON       CLEAR     45  37  73 SW6       29.90F
COPPER HARBOR    N/A     48  39  71 SW8       29.90S
IRONWOOD       PTCLDY    45  38  76 S8        29.91F
$$

ABBREVIATIONS USED IN REMARKS
   TC - TEMPERATURE IN CELSIUS
  WCI - WIND CHILL INDEX
   HX - HEAT INDEX
  VSB - VISIBILITY





USA.gov is the U.S. government's official web portal to all federal, state and local government web resources and services.